This demonstration page uses our WeatherBlox Daily Observations layout. Learn more.

Left ArrowRight Arrow

Hourly Observations for May 6, 2021

Temp ( °F °C ) Dew Point ( °F °C ) Humidity (%) Winds ( mph kmh ) Pressure ( in mb ) Visibility ( mi km ) Precip ( " mm )
12:15 am 00:15 Clear 41 5 39 4 93 93 N N/A 30.2 1023 10 16.0934 N/A
12:35 am 00:35 Clear 41 5 37 3 87 87 N N/A 30.2 1023 10 16.0934 N/A
12:55 am 00:55 Clear 41 5 39 4 93 93 N N/A 30.2 1023 10 16.0934 N/A
1:15 am 01:15 Clear 41 5 39 4 93 93 N N/A 30.2 1023 10 16.0934 N/A
1:35 am 01:35 Clear 39 4 39 4 100 100 N N/A 30.2 1023 10 16.0934 N/A
1:55 am 01:55 Clear 41 5 39 4 93 93 N N/A 30.19 1022 10 16.0934 N/A
2:15 am 02:15 Clear 39 4 39 4 100 100 N N/A 30.18 1022 10 16.0934 N/A
2:35 am 02:35 Clear 39 4 39 4 100 100 N N/A 30.18 1022 10 16.0934 N/A
2:55 am 02:55 Clear 39 4 39 4 100 100 N N/A 30.17 1022 10 16.0934 N/A
3:15 am 03:15 Clear 37 3 37 3 100 100 N N/A 30.17 1022 10 16.0934 N/A
3:35 am 03:35 Clear 37 3 37 3 100 100 N N/A 30.17 1022 10 16.0934 N/A
3:55 am 03:55 Clear 37 3 37 3 100 100 N N/A 30.17 1022 10 16.0934 N/A
4:15 am 04:15 Clear 37 3 37 3 100 100 N N/A 30.17 1022 10 16.0934 N/A
4:35 am 04:35 Clear 37 3 37 3 100 100 N N/A 30.18 1022 10 16.0934 N/A
4:55 am 04:55 Clear 39 4 39 4 100 100 N N/A 30.17 1022 10 16.0934 N/A
5:15 am 05:15 Clear 37 3 37 3 100 100 N N/A 30.17 1022 10 16.0934 N/A
5:35 am 05:35 Clear 37 3 37 3 100 100 N N/A 30.17 1022 10 16.0934 N/A
5:55 am 05:55 Clear 37 3 37 3 100 100 N N/A 30.17 1022 10 16.0934 N/A
6:15 am 06:15 Clear 37 3 37 3 100 100 N N/A 30.17 1022 10 16.0934 N/A
6:35 am 06:35 Clear 37 3 37 3 100 100 N N/A 30.16 1021 10 16.0934 N/A
6:55 am 06:55 Sunny 37 3 37 3 100 100 N N/A 30.16 1021 10 16.0934 N/A
7:15 am 07:15 Sunny 39 4 39 4 100 100 N N/A 30.17 1022 10 16.0934 N/A
7:35 am 07:35 Sunny 39 4 39 4 100 100 N N/A 30.17 1022 10 16.0934 N/A
7:55 am 07:55 Sunny 41 5 41 5 100 100 N N/A 30.17 1022 10 16.0934 N/A
8:15 am 08:15 Sunny 43 6 43 6 100 100 N N/A 30.18 1022 10 16.0934 N/A
8:35 am 08:35 Sunny 43 6 43 6 100 100 N N/A 30.18 1022 10 16.0934 N/A
8:55 am 08:55 Partly Cloudy 48 9 41 5 76 76 N N/A 30.16 1021 10 16.0934 N/A
9:15 am 09:15 Partly Cloudy 48 9 37 3 66 66 N N/A 30.16 1021 10 16.0934 N/A
9:35 am 09:35 Sunny 50 10 37 3 62 62 N N/A 30.15 1021 10 16.0934 N/A
9:55 am 09:55 Sunny 52 11 39 4 62 62 SSE 7 11 30.15 1021 10 16.0934 N/A
10:15 am 10:15 Partly Cloudy 54 12 39 4 58 58 N N/A 30.14 1021 10 16.0934 N/A
10:35 am 10:35 Partly Cloudy 55 13 39 4 55 55 SSW 8 13 30.14 1021 10 16.0934 N/A
10:55 am 10:55 Sunny 55 13 39 4 55 55 S 3 6 30.13 1020 10 16.0934 N/A
11:15 am 11:15 Mostly Cloudy 57 14 39 4 51 51 N N/A 30.12 1020 10 16.0934 N/A
11:35 am 11:35 Cloudy 55 13 41 5 59 59 N N/A 30.12 1020 10 16.0934 N/A
11:55 am 11:55 Mostly Cloudy 57 14 41 5 55 55 S 6 9 30.11 1020 10 16.0934 N/A
12:15 pm 12:15 Mostly Cloudy 59 15 41 5 51 51 S 9 15 30.1 1019 10 16.0934 N/A
12:35 pm 12:35 Cloudy 59 15 41 5 51 51 N N/A 30.09 1019 10 16.0934 N/A
12:55 pm 12:55 Cloudy 59 15 41 5 51 51 SW 12 19 30.08 1019 10 16.0934 N/A
1:15 pm 13:15 Cloudy 59 15 41 5 51 51 SW 14 22 30.08 1019 10 16.0934 N/A
1:35 pm 13:35 Cloudy 57 14 43 6 59 59 SW 16 26 30.09 1019 10 16.0934 N/A
1:55 pm 13:55 Cloudy 57 14 45 7 63 63 SW 9 15 30.08 1019 10 16.0934 N/A
2:15 pm 14:15 Cloudy 55 13 46 8 72 72 SW 12 19 30.07 1018 10 16.0934 N/A
2:35 pm 14:35 Cloudy 55 13 46 8 72 72 N N/A 30.06 1018 10 16.0934 N/A
2:55 pm 14:55 Cloudy 57 14 46 8 67 67 S 8 13 30.05 1018 10 16.0934 N/A
3:15 pm 15:15 Cloudy 57 14 45 7 63 63 SSW 9 15 30.04 1017 10 16.0934 N/A
3:35 pm 15:35 Cloudy 57 14 45 7 63 63 SSW 7 11 30.04 1017 10 16.0934 N/A
3:55 pm 15:55 Cloudy 57 14 46 8 67 67 N N/A 30.02 1017 10 16.0934 N/A
4:15 pm 16:15 Cloudy 59 15 45 7 59 59 SSW 8 13 30.01 1016 10 16.0934 N/A
4:35 pm 16:35 Cloudy 59 15 45 7 59 59 SSW 13 20 30 1016 10 16.0934 N/A
4:55 pm 16:55 Cloudy 59 15 46 8 63 63 SSW 14 22 29.99 1016 10 16.0934 N/A
5:15 pm 17:15 Cloudy 57 14 46 8 67 67 SSW 15 24 30 1016 10 16.0934 N/A
5:35 pm 17:35 Cloudy 55 13 46 8 72 72 SSW 9 15 30 1016 10 16.0934 N/A
5:55 pm 17:55 Cloudy 54 12 50 10 88 88 N N/A 30.01 1016 10 16.0934 N/A
6:15 pm 18:15 Cloudy 55 13 48 9 77 77 N N/A 30 1016 10 16.0934 N/A
6:35 pm 18:35 Cloudy 54 12 48 9 82 82 N N/A 29.99 1016 10 16.0934 N/A
6:55 pm 18:55 Cloudy 54 12 50 10 88 88 N N/A 29.99 1016 10 16.0934 N/A
7:15 pm 19:15 Cloudy 50 10 50 10 100 100 W 22 35 30.02 1017 10 16.0934 N/A
7:35 pm 19:35 Cloudy 48 9 48 9 100 100 W 17 28 30.03 1017 10 16.0934 N/A
7:55 pm 19:55 Cloudy 48 9 48 9 100 100 N N/A 30.02 1017 7 11.26538 N/A
8:15 pm 20:15 Cloudy 48 9 48 9 100 100 N N/A 30.02 1017 10 16.0934 N/A
8:35 pm 20:35 Cloudy 48 9 48 9 100 100 N N/A 30.02 1017 10 16.0934 N/A
8:55 pm 20:55 Cloudy 48 9 48 9 100 100 N N/A 30.02 1017 10 16.0934 N/A
9:15 pm 21:15 Cloudy 46 8 46 8 100 100 N N/A 30.03 1017 10 16.0934 N/A
9:35 pm 21:35 Cloudy 46 8 46 8 100 100 N N/A 30.03 1017 10 16.0934 N/A
9:55 pm 21:55 Cloudy 48 9 48 9 100 100 N N/A 30.03 1017 10 16.0934 N/A
10:15 pm 22:15 Cloudy 48 9 48 9 100 100 W 8 13 30.04 1017 10 16.0934 N/A
10:35 pm 22:35 Cloudy 48 9 48 9 100 100 NW 15 24 30.04 1017 10 16.0934 N/A
10:55 pm 22:55 Cloudy 48 9 48 9 100 100 NW 15 24 30.05 1018 10 16.0934 N/A
11:15 pm 23:15 Cloudy 46 8 46 8 100 100 NW 16 26 30.06 1018 10 16.0934 N/A
11:35 pm 23:35 Cloudy 46 8 46 8 100 100 NW 14 22 30.06 1018 10 16.0934 N/A
11:55 pm 23:55 Cloudy 46 8 46 8 100 100 NW 13 20 30.07 1018 10 16.0934 N/A

Powered by AerisWeather